This is the latest recevied weather packets stored in our database for station/object DL1GHN-6. If no packets are shown the sender has not sent any weather packets the latest 1 day(s).
| Time | Temp. | Humidity | Pressure | Rain* | Wind** | Luminosity | Snow |
|---|---|---|---|---|---|---|---|
| 1778070585 | 16.11° C | 79% | 1006.5 hPa | 0 mm | - | 209 W/m² | - |
| 1778070285 | 16.11° C | 81% | 1006.5 hPa | 0 mm | - | 311 W/m² | - |
| 1778069985 | 16.11° C | 80% | 1006.4 hPa | 0 mm | - | 295 W/m² | - |
| 1778069685 | 16.11° C | 78% | 1006.4 hPa | 0 mm | - | 258 W/m² | - |
| 1778069384 | 16.67° C | 79% | 1006.4 hPa | 0 mm | - | 218 W/m² | - |
| 1778069084 | 16.11° C | 80% | 1006.4 hPa | 0 mm | - | 241 W/m² | - |
| 1778068485 | 16.67° C | 75% | 1006.3 hPa | 0 mm | - | 176 W/m² | - |
| 1778067457 | 17.22° C | 72% | 1006.2 hPa | 0 mm | - | 156 W/m² | - |
| 1778065057 | 17.22° C | 70% | 1006.3 hPa | 0 mm | - | 213 W/m² | - |
| 1778064458 | 17.22° C | 70% | 1006.3 hPa | 0 mm | - | 230 W/m² | - |
| 1778064157 | 17.22° C | 71% | 1006.4 hPa | 0 mm | - | 239 W/m² | - |
| 1778063858 | 17.22° C | 70% | 1006.4 hPa | 0 mm | - | 230 W/m² | - |
| 1778063558 | 17.22° C | 70% | 1006.4 hPa | 0 mm | - | 232 W/m² | - |
| 1778063257 | 17.22° C | 71% | 1006.4 hPa | 0 mm | - | 248 W/m² | - |
| 1778062957 | 17.22° C | 69% | 1006.3 hPa | 0 mm | - | 236 W/m² | - |
| 1778062658 | 17.22° C | 69% | 1006.4 hPa | 0 mm | - | 257 W/m² | - |
| 1778062057 | 17.78° C | 70% | 1006.4 hPa | 0 mm | - | 285 W/m² | - |
| 1778061457 | 17.22° C | 70% | 1006.5 hPa | 0 mm | - | 362 W/m² | - |
| 1778060558 | 16.67° C | 71% | 1006.5 hPa | 0 mm | - | 265 W/m² | - |
| 1778059958 | 17.22° C | 71% | 1006.5 hPa | 0 mm | - | 183 W/m² | - |
| 1778059657 | 17.22° C | 70% | 1006.5 hPa | 0 mm | - | 230 W/m² | - |
| 1778059363 | 17.22° C | 71% | 1006.4 hPa | 0 mm | - | 272 W/m² | - |
| 1778059063 | 17.22° C | 71% | 1006.4 hPa | 0 mm | - | 394 W/m² | - |
| 1778058462 | 17.22° C | 70% | 1006.3 hPa | 0 mm | - | 336 W/m² | - |
| 1778057262 | 16.67° C | 70% | 1006.3 hPa | 0 mm | - | 334 W/m² | - |
* Rain latest hour (hover to see other rain measurements)
** Current wind speed in m/s (hover to see current wind gust speed)